Year,Month,Day,Hour,Minute,Value (Times are PST for temperature in C)
2012,05,18,00,00,9.90
2012,05,18,00,01,9.80
2012,05,18,00,02,9.80
2012,05,18,00,03,9.80
2012,05,18,00,04,9.80
2012,05,18,00,05,9.80
2012,05,18,00,06,9.70
2012,05,18,00,07,9.70
2012,05,18,00,08,9.70
2012,05,18,00,10,9.60
2012,05,18,00,11,9.60
2012,05,18,00,12,9.60
2012,05,18,00,13,9.50
2012,05,18,00,14,9.50
2012,05,18,00,15,9.40
2012,05,18,00,16,9.40
2012,05,18,00,17,9.40
2012,05,18,00,19,9.30
2012,05,18,00,20,9.30
2012,05,18,00,21,9.30
2012,05,18,00,22,9.30
2012,05,18,00,23,9.30
2012,05,18,00,24,9.20
2012,05,18,00,25,9.20
2012,05,18,00,26,9.20
2012,05,18,00,27,9.20
2012,05,18,00,28,9.10
2012,05,18,00,29,9.10
2012,05,18,00,30,9.10
2012,05,18,00,31,9.10
2012,05,18,00,32,9.00
2012,05,18,00,33,9.00
2012,05,18,00,35,8.90
2012,05,18,00,36,8.90
2012,05,18,00,37,8.80
2012,05,18,00,38,8.80
2012,05,18,00,39,8.80
2012,05,18,00,41,8.70
2012,05,18,00,42,8.70
2012,05,18,00,43,8.70
2012,05,18,00,44,8.60
2012,05,18,00,45,8.60
2012,05,18,00,46,8.60
2012,05,18,00,47,8.60
2012,05,18,00,48,8.60
2012,05,18,00,49,8.60
2012,05,18,00,50,8.50
2012,05,18,00,51,8.60
2012,05,18,00,52,8.50
2012,05,18,00,53,8.50
2012,05,18,00,55,8.50
2012,05,18,00,56,8.40
2012,05,18,00,57,8.40
2012,05,18,00,59,8.40
2012,05,18,01,00,8.40
2012,05,18,01,01,8.40
2012,05,18,01,02,8.40
2012,05,18,01,03,8.30
2012,05,18,01,04,8.30
2012,05,18,01,05,8.30
2012,05,18,01,06,8.20
2012,05,18,01,07,8.20
2012,05,18,01,08,8.20
2012,05,18,01,09,8.10
2012,05,18,01,10,8.10
2012,05,18,01,11,8.10
2012,05,18,01,12,8.00
2012,05,18,01,13,7.90
2012,05,18,01,14,7.90
2012,05,18,01,15,7.80
2012,05,18,01,16,7.80
2012,05,18,01,17,7.70
2012,05,18,01,18,7.70
2012,05,18,01,19,7.70
2012,05,18,01,21,7.70
2012,05,18,01,22,7.70
2012,05,18,01,23,7.70
2012,05,18,01,24,7.70
2012,05,18,01,25,7.70
2012,05,18,01,26,7.70
2012,05,18,01,27,7.70
2012,05,18,01,28,7.70
2012,05,18,01,29,7.70
2012,05,18,01,30,7.80
2012,05,18,01,31,7.80
2012,05,18,01,32,7.80
2012,05,18,01,33,7.80
2012,05,18,01,34,7.80
2012,05,18,01,35,7.80
2012,05,18,01,36,7.70
2012,05,18,01,37,7.70
2012,05,18,01,38,7.70
2012,05,18,01,39,7.70
2012,05,18,01,40,7.70
2012,05,18,01,41,7.60
2012,05,18,01,42,7.60
2012,05,18,01,43,7.50
2012,05,18,01,44,7.50
2012,05,18,01,45,7.40
2012,05,18,01,46,7.30
2012,05,18,01,47,7.30
2012,05,18,01,48,7.30
2012,05,18,01,49,7.20
2012,05,18,01,50,7.20
2012,05,18,01,51,7.20
2012,05,18,01,52,7.20
2012,05,18,01,53,7.20
2012,05,18,01,54,7.10
2012,05,18,01,55,7.10
2012,05,18,01,56,7.10
2012,05,18,01,57,7.10
2012,05,18,01,58,7.10
2012,05,18,01,59,7.00
2012,05,18,02,00,7.00
2012,05,18,02,01,7.00
2012,05,18,02,02,6.90
2012,05,18,02,03,6.90
2012,05,18,02,04,6.90
2012,05,18,02,05,6.90
2012,05,18,02,06,6.90
2012,05,18,02,07,6.80
2012,05,18,02,08,6.80
2012,05,18,02,09,6.80
2012,05,18,02,10,6.80
2012,05,18,02,11,6.80
2012,05,18,02,12,6.70
2012,05,18,02,13,6.70
2012,05,18,02,14,6.70
2012,05,18,02,15,6.70
2012,05,18,02,17,6.70
2012,05,18,02,18,6.70
2012,05,18,02,19,6.70
2012,05,18,02,20,6.60
2012,05,18,02,21,6.60
2012,05,18,02,22,6.60
2012,05,18,02,23,6.60
2012,05,18,02,24,6.60
2012,05,18,02,25,6.60
2012,05,18,02,26,6.60
2012,05,18,02,27,6.60
2012,05,18,02,28,6.60
2012,05,18,02,29,6.60
2012,05,18,02,30,6.60
2012,05,18,02,31,6.60
2012,05,18,02,32,6.60
2012,05,18,02,33,6.60
2012,05,18,02,34,6.50
2012,05,18,02,35,6.50
2012,05,18,02,36,6.50
2012,05,18,02,37,6.40
2012,05,18,02,38,6.40
2012,05,18,02,39,6.40
2012,05,18,02,40,6.40
2012,05,18,02,41,6.40
2012,05,18,02,42,6.40
2012,05,18,02,43,6.40
2012,05,18,02,44,6.40
2012,05,18,02,45,6.40
2012,05,18,02,46,6.40
2012,05,18,02,47,6.40
2012,05,18,02,48,6.40
2012,05,18,02,49,6.30
2012,05,18,02,50,6.30
2012,05,18,02,51,6.30
2012,05,18,02,52,6.30
2012,05,18,02,53,6.30
2012,05,18,02,54,6.30
2012,05,18,02,55,6.30
2012,05,18,02,56,6.30
2012,05,18,02,57,6.30
2012,05,18,02,59,6.20
2012,05,18,03,00,6.20
2012,05,18,03,01,6.20
2012,05,18,03,02,6.20
2012,05,18,03,03,6.20
2012,05,18,03,04,6.10
2012,05,18,03,05,6.10
2012,05,18,03,06,6.10
2012,05,18,03,07,6.10
2012,05,18,03,08,6.10
2012,05,18,03,09,6.10
2012,05,18,03,10,6.10
2012,05,18,03,11,6.00
2012,05,18,03,13,6.00
2012,05,18,03,14,6.00
2012,05,18,03,15,6.00
2012,05,18,03,16,6.00
2012,05,18,03,17,6.00
2012,05,18,03,18,6.00
2012,05,18,03,20,5.90
2012,05,18,03,21,6.00
2012,05,18,03,22,6.00
2012,05,18,03,23,6.00
2012,05,18,03,24,6.00
2012,05,18,03,25,6.00
2012,05,18,03,27,6.00
2012,05,18,03,28,6.00
2012,05,18,03,29,6.00
2012,05,18,03,30,6.00
2012,05,18,03,31,6.00
2012,05,18,03,32,6.00
2012,05,18,03,33,6.00
2012,05,18,03,34,6.00
2012,05,18,03,35,5.90
2012,05,18,03,36,5.90
2012,05,18,03,37,5.90
2012,05,18,03,38,5.90
2012,05,18,03,39,5.90
2012,05,18,03,40,5.90
2012,05,18,03,41,5.90
2012,05,18,03,42,5.90
2012,05,18,03,43,5.90
2012,05,18,03,44,5.80
2012,05,18,03,45,5.80
2012,05,18,03,46,5.80
2012,05,18,03,47,5.80
2012,05,18,03,48,5.80
2012,05,18,03,49,5.80
2012,05,18,03,50,5.80
2012,05,18,03,51,5.70
2012,05,18,03,52,5.70
2012,05,18,03,53,5.70
2012,05,18,03,54,5.70
2012,05,18,03,55,5.70
2012,05,18,03,56,5.60
2012,05,18,03,57,5.60
2012,05,18,03,58,5.60
2012,05,18,04,00,5.60
2012,05,18,04,02,5.50
2012,05,18,04,03,5.50
2012,05,18,04,04,5.50
2012,05,18,04,05,5.40
2012,05,18,04,06,5.40
2012,05,18,04,07,5.40
2012,05,18,04,08,5.40
2012,05,18,04,09,5.40
2012,05,18,04,10,5.40
2012,05,18,04,11,5.40
2012,05,18,04,12,5.40
2012,05,18,04,13,5.40
2012,05,18,04,14,5.40
2012,05,18,04,15,5.40
2012,05,18,04,16,5.40
2012,05,18,04,17,5.30
2012,05,18,04,18,5.30
2012,05,18,04,19,5.30
2012,05,18,04,20,5.30
2012,05,18,04,21,5.30
2012,05,18,04,22,5.30
2012,05,18,04,23,5.30
2012,05,18,04,24,5.30
2012,05,18,04,25,5.30
2012,05,18,04,26,5.30
2012,05,18,04,27,5.20
2012,05,18,04,28,5.20
2012,05,18,04,29,5.20
2012,05,18,04,30,5.20
2012,05,18,04,31,5.20
2012,05,18,04,32,5.20
2012,05,18,04,33,5.20
2012,05,18,04,34,5.20
2012,05,18,04,35,5.20
2012,05,18,04,36,5.20
2012,05,18,04,37,5.20
2012,05,18,04,38,5.20
2012,05,18,04,39,5.10
2012,05,18,04,40,5.10
2012,05,18,04,41,5.10
2012,05,18,04,42,5.10
2012,05,18,04,43,5.10
2012,05,18,04,45,5.10
2012,05,18,04,46,5.10
2012,05,18,04,47,5.10
2012,05,18,04,48,5.00
2012,05,18,04,49,5.00
2012,05,18,04,50,4.90
2012,05,18,04,51,4.90
2012,05,18,04,52,4.90
2012,05,18,04,53,4.90
2012,05,18,04,54,4.90
2012,05,18,04,55,4.90
2012,05,18,04,56,4.90
2012,05,18,04,57,4.80
2012,05,18,04,58,4.80
2012,05,18,04,59,4.80
2012,05,18,05,00,4.80
2012,05,18,05,01,4.80
2012,05,18,05,02,4.80
2012,05,18,05,03,4.70
2012,05,18,05,04,4.70
2012,05,18,05,05,4.70
2012,05,18,05,06,4.70
2012,05,18,05,07,4.70
2012,05,18,05,08,4.70
2012,05,18,05,09,4.60
2012,05,18,05,11,4.60
2012,05,18,05,12,4.60
2012,05,18,05,13,4.50
2012,05,18,05,14,4.40
2012,05,18,05,16,4.40
2012,05,18,05,18,4.30
2012,05,18,05,19,4.30
2012,05,18,05,20,4.20
2012,05,18,05,21,4.20
2012,05,18,05,22,4.10
2012,05,18,05,23,4.10
2012,05,18,05,24,4.10
2012,05,18,05,26,4.00
2012,05,18,05,27,4.00
2012,05,18,05,28,3.90
2012,05,18,05,29,3.90
2012,05,18,05,30,3.90
2012,05,18,05,31,3.90
2012,05,18,05,32,3.80
2012,05,18,05,34,3.80
2012,05,18,05,35,3.80
2012,05,18,05,36,3.80
2012,05,18,05,38,3.80
2012,05,18,05,39,3.70
2012,05,18,05,40,3.70
2012,05,18,05,41,3.70
2012,05,18,05,43,3.70
2012,05,18,05,44,3.70
2012,05,18,05,45,3.70
2012,05,18,05,46,3.70
2012,05,18,05,47,3.70
2012,05,18,05,49,3.70
2012,05,18,05,50,3.70
2012,05,18,05,52,3.80
2012,05,18,05,53,3.80
2012,05,18,05,54,3.80
2012,05,18,05,55,3.80
2012,05,18,05,56,3.80
2012,05,18,05,57,3.90
2012,05,18,05,58,3.90
2012,05,18,05,59,3.90
2012,05,18,06,00,3.90
2012,05,18,06,01,4.00
2012,05,18,06,02,4.00
2012,05,18,06,03,4.00
2012,05,18,06,04,4.10
2012,05,18,06,05,4.10
2012,05,18,06,06,4.10
2012,05,18,06,07,4.10
2012,05,18,06,08,4.20
2012,05,18,06,09,4.20
2012,05,18,06,10,4.20
2012,05,18,06,11,4.20
2012,05,18,06,12,4.20
2012,05,18,06,13,4.30
2012,05,18,06,14,4.30
2012,05,18,06,15,4.30
2012,05,18,06,16,4.30
2012,05,18,06,17,4.40
2012,05,18,06,18,4.40
2012,05,18,06,19,4.40
2012,05,18,06,20,4.40
2012,05,18,06,21,4.40
2012,05,18,06,22,4.40
2012,05,18,06,23,4.50
2012,05,18,06,24,4.50
2012,05,18,06,25,4.50
2012,05,18,06,29,4.50
2012,05,18,06,30,4.50
2012,05,18,06,31,4.60
2012,05,18,06,32,4.50
2012,05,18,06,33,4.60
2012,05,18,06,34,4.60
2012,05,18,06,35,4.60
2012,05,18,06,36,4.60
2012,05,18,06,37,4.70
2012,05,18,06,38,4.70
2012,05,18,06,39,4.70
2012,05,18,06,40,4.70
2012,05,18,06,41,4.70
2012,05,18,06,42,4.70
2012,05,18,06,43,4.70
2012,05,18,06,44,4.70
2012,05,18,06,45,4.70
2012,05,18,06,46,4.80
2012,05,18,06,47,4.80
2012,05,18,06,48,4.80
2012,05,18,06,49,4.80
2012,05,18,06,50,4.90
2012,05,18,06,51,4.90
2012,05,18,06,52,4.90
2012,05,18,06,53,4.90
2012,05,18,06,54,4.90
2012,05,18,06,55,4.90
2012,05,18,06,56,4.90
2012,05,18,06,57,4.90
2012,05,18,06,58,5.00
2012,05,18,06,59,5.00
2012,05,18,07,00,5.00
2012,05,18,07,01,5.10
2012,05,18,07,02,5.10
2012,05,18,07,03,5.10
2012,05,18,07,04,5.10
2012,05,18,07,05,5.10
2012,05,18,07,06,5.10
2012,05,18,07,07,5.10
2012,05,18,07,08,5.10
2012,05,18,07,09,5.10
2012,05,18,07,10,5.10
2012,05,18,07,11,5.10
2012,05,18,07,12,5.10
2012,05,18,07,13,5.10
2012,05,18,07,14,5.10
2012,05,18,07,15,5.10
2012,05,18,07,16,5.10
2012,05,18,07,17,5.10
2012,05,18,07,18,5.10
2012,05,18,07,19,5.10
2012,05,18,07,20,5.10
2012,05,18,07,21,5.10
2012,05,18,07,22,5.10
2012,05,18,07,24,5.10
2012,05,18,07,25,5.20
2012,05,18,07,26,5.20
2012,05,18,07,27,5.20
2012,05,18,07,28,5.20
2012,05,18,07,29,5.20
2012,05,18,07,30,5.30
2012,05,18,07,31,5.30
2012,05,18,07,32,5.30
2012,05,18,07,33,5.30
2012,05,18,07,34,5.40
2012,05,18,07,35,5.40
2012,05,18,07,37,5.50
2012,05,18,07,38,5.50
2012,05,18,07,39,5.60
2012,05,18,07,40,5.60
2012,05,18,07,42,5.70
2012,05,18,07,43,5.70
2012,05,18,07,44,5.80
2012,05,18,07,45,5.80
2012,05,18,07,46,5.80
2012,05,18,07,47,5.80
2012,05,18,07,48,5.90
2012,05,18,07,49,5.90
2012,05,18,07,50,5.90
2012,05,18,07,51,6.00
2012,05,18,07,52,6.10
2012,05,18,07,53,6.10
2012,05,18,07,54,6.20
2012,05,18,07,55,6.20
2012,05,18,07,56,6.20
2012,05,18,07,57,6.30
2012,05,18,07,58,6.30
2012,05,18,07,59,6.30
2012,05,18,08,00,6.40
2012,05,18,08,01,6.40
2012,05,18,08,03,6.50
2012,05,18,08,04,6.50
2012,05,18,08,05,6.60
2012,05,18,08,06,6.60
2012,05,18,08,07,6.60
2012,05,18,08,08,6.60
2012,05,18,08,09,6.60
2012,05,18,08,10,6.60
2012,05,18,08,11,6.70
2012,05,18,08,12,6.70
2012,05,18,08,13,6.70
2012,05,18,08,14,6.80
2012,05,18,08,15,6.80
2012,05,18,08,16,6.80
2012,05,18,08,17,6.80
2012,05,18,08,18,6.90
2012,05,18,08,19,6.90
2012,05,18,08,20,6.90
2012,05,18,08,21,7.00
2012,05,18,08,22,7.00
2012,05,18,08,23,7.10
2012,05,18,08,24,7.10
2012,05,18,08,25,7.10
2012,05,18,08,26,7.10
2012,05,18,08,27,7.20
2012,05,18,08,28,7.20
2012,05,18,08,29,7.20
2012,05,18,08,30,7.20
2012,05,18,08,31,7.20
2012,05,18,08,32,7.20
2012,05,18,08,33,7.20
2012,05,18,08,34,7.20
2012,05,18,08,35,7.20
2012,05,18,08,37,7.30
2012,05,18,08,38,7.30
2012,05,18,08,39,7.30
2012,05,18,08,40,7.30
2012,05,18,08,41,7.40
2012,05,18,08,42,7.40
2012,05,18,08,43,7.40
2012,05,18,08,44,7.40
2012,05,18,08,45,7.40
2012,05,18,08,46,7.40
2012,05,18,08,47,7.40
2012,05,18,08,48,7.40
2012,05,18,08,49,7.40
2012,05,18,08,50,7.40
2012,05,18,08,51,7.40
2012,05,18,08,52,7.40
2012,05,18,08,53,7.40
2012,05,18,08,54,7.40
2012,05,18,08,55,7.40
2012,05,18,08,56,7.50
2012,05,18,08,58,7.50
2012,05,18,08,59,7.50
2012,05,18,09,01,7.50
2012,05,18,09,03,7.50
2012,05,18,09,05,7.50
2012,05,18,09,07,7.40
2012,05,18,09,08,7.40
2012,05,18,09,09,7.40
2012,05,18,09,11,7.50
2012,05,18,09,13,7.60
2012,05,18,09,14,7.60
2012,05,18,09,15,7.60
2012,05,18,09,17,7.60
2012,05,18,09,19,7.60
2012,05,18,09,20,7.70
2012,05,18,09,22,7.70
2012,05,18,09,23,7.80
2012,05,18,09,24,7.80
2012,05,18,09,25,7.80
2012,05,18,09,27,7.90
2012,05,18,09,28,7.90
2012,05,18,09,30,7.90
2012,05,18,09,32,8.00
2012,05,18,09,33,8.10
2012,05,18,09,35,8.10
2012,05,18,09,37,8.10
2012,05,18,09,39,8.10
2012,05,18,09,41,8.20
2012,05,18,09,42,8.20
2012,05,18,09,43,8.20
2012,05,18,09,45,8.20
2012,05,18,09,46,8.20
2012,05,18,09,47,8.30
2012,05,18,09,48,8.30
2012,05,18,09,49,8.30
2012,05,18,09,51,8.30
2012,05,18,09,52,8.30
2012,05,18,09,53,8.40
2012,05,18,09,54,8.40
2012,05,18,09,55,8.40
2012,05,18,09,56,8.50
2012,05,18,09,58,8.60
2012,05,18,09,59,8.60
2012,05,18,10,01,8.60
2012,05,18,10,03,8.70
2012,05,18,10,04,8.70
2012,05,18,10,05,8.70
2012,05,18,10,06,8.80
2012,05,18,10,08,8.80
2012,05,18,10,09,8.90
2012,05,18,10,11,8.90
2012,05,18,10,12,9.00
2012,05,18,10,14,9.20
2012,05,18,10,15,9.20
2012,05,18,10,16,9.20
2012,05,18,10,17,9.30
2012,05,18,10,18,9.30
2012,05,18,10,20,9.50
2012,05,18,10,22,9.70
2012,05,18,10,23,9.80
2012,05,18,10,24,9.80
2012,05,18,10,25,9.90
2012,05,18,10,27,10.00
2012,05,18,10,29,10.00
2012,05,18,10,30,10.10
2012,05,18,10,31,10.10
2012,05,18,10,32,10.20
2012,05,18,10,34,10.20
2012,05,18,10,35,10.20
2012,05,18,10,36,10.30
2012,05,18,10,37,10.40
2012,05,18,10,39,10.60
2012,05,18,10,40,10.60
2012,05,18,10,41,10.70
2012,05,18,10,43,10.70
2012,05,18,10,45,10.80
2012,05,18,10,46,10.80
2012,05,18,10,47,10.90
2012,05,18,10,49,10.90
2012,05,18,10,51,11.00
2012,05,18,10,52,11.00
2012,05,18,10,54,11.00
2012,05,18,10,55,11.00
2012,05,18,10,56,11.10
2012,05,18,10,57,11.10
2012,05,18,10,59,11.10
2012,05,18,11,00,11.10
2012,05,18,11,01,11.10
2012,05,18,11,02,11.10
2012,05,18,11,04,11.10
2012,05,18,11,05,11.10
2012,05,18,11,07,11.20
2012,05,18,11,09,11.30
2012,05,18,11,10,11.40
2012,05,18,11,11,11.50
2012,05,18,11,12,11.60
2012,05,18,11,13,11.60
2012,05,18,11,15,11.70
2012,05,18,11,17,11.80
2012,05,18,11,18,11.80
2012,05,18,11,20,11.80
2012,05,18,11,21,11.80
2012,05,18,11,22,11.80
2012,05,18,11,24,11.70
2012,05,18,11,25,11.70
2012,05,18,11,26,11.70
2012,05,18,11,28,11.70
2012,05,18,11,30,11.80
2012,05,18,11,31,11.80
2012,05,18,11,32,11.90
2012,05,18,11,33,12.10
2012,05,18,11,35,12.20
2012,05,18,11,36,12.30
2012,05,18,11,37,12.30
2012,05,18,11,38,12.40
2012,05,18,11,40,12.40
2012,05,18,11,41,12.40
2012,05,18,11,43,12.60
2012,05,18,11,44,12.50
2012,05,18,11,45,12.50
2012,05,18,11,46,12.50
2012,05,18,11,48,12.50
2012,05,18,11,49,12.40
2012,05,18,11,50,12.40
2012,05,18,11,52,12.40
2012,05,18,11,53,12.40
2012,05,18,11,55,12.30
2012,05,18,11,57,12.30
2012,05,18,11,58,12.30
2012,05,18,11,59,12.30
2012,05,18,12,00,12.30
2012,05,18,12,01,12.40
2012,05,18,12,02,12.50
2012,05,18,12,04,12.70
2012,05,18,12,06,12.80
2012,05,18,12,08,12.90
2012,05,18,12,09,12.90
2012,05,18,12,10,12.90
2012,05,18,12,11,13.00
2012,05,18,12,12,13.10
2012,05,18,12,13,13.20
2012,05,18,12,14,13.20
2012,05,18,12,15,13.20
2012,05,18,12,16,13.30
2012,05,18,12,17,13.30
2012,05,18,12,18,13.30
2012,05,18,12,19,13.40
2012,05,18,12,20,13.40
2012,05,18,12,21,13.50
2012,05,18,12,22,13.60
2012,05,18,12,23,13.60
2012,05,18,12,24,13.70
2012,05,18,12,25,13.80
2012,05,18,12,26,13.90
2012,05,18,12,27,13.90
2012,05,18,12,28,14.00
2012,05,18,12,29,13.90
2012,05,18,12,30,13.80
2012,05,18,12,31,13.80
2012,05,18,12,32,13.70
2012,05,18,12,33,13.60
2012,05,18,12,34,13.50
2012,05,18,12,35,13.40
2012,05,18,12,36,13.30
2012,05,18,12,37,13.30
2012,05,18,12,38,13.40
2012,05,18,12,39,13.40
2012,05,18,12,40,13.40
2012,05,18,12,41,13.40
2012,05,18,12,42,13.40
2012,05,18,12,43,13.40
2012,05,18,12,44,13.40
2012,05,18,12,45,13.50
2012,05,18,12,46,13.60
2012,05,18,12,47,13.70
2012,05,18,12,48,13.70
2012,05,18,12,49,13.70
2012,05,18,12,50,13.70
2012,05,18,12,51,13.70
2012,05,18,12,52,13.80
2012,05,18,12,53,13.80
2012,05,18,12,54,13.90
2012,05,18,12,55,13.90
2012,05,18,12,56,14.00
2012,05,18,12,57,14.10
2012,05,18,12,58,14.20
2012,05,18,12,59,14.30
2012,05,18,13,00,14.30
2012,05,18,13,01,14.30
2012,05,18,13,02,14.30
2012,05,18,13,03,14.30
2012,05,18,13,04,14.30
2012,05,18,13,05,14.30
2012,05,18,13,06,14.30
2012,05,18,13,07,14.40
2012,05,18,13,08,14.50
2012,05,18,13,09,14.60
2012,05,18,13,10,14.60
2012,05,18,13,11,14.60
2012,05,18,13,12,14.60
2012,05,18,13,13,14.60
2012,05,18,13,14,14.60
2012,05,18,13,15,14.70
2012,05,18,13,16,14.70
2012,05,18,13,17,14.70
2012,05,18,13,18,14.70
2012,05,18,13,19,14.60
2012,05,18,13,20,14.60
2012,05,18,13,21,14.60
2012,05,18,13,22,14.70
2012,05,18,13,23,14.70
2012,05,18,13,24,14.80
2012,05,18,13,25,14.70
2012,05,18,13,26,14.70
2012,05,18,13,27,14.80
2012,05,18,13,28,14.80
2012,05,18,13,29,14.80
2012,05,18,13,30,14.80
2012,05,18,13,31,14.90
2012,05,18,13,32,15.00
2012,05,18,13,33,15.00
2012,05,18,13,34,15.00
2012,05,18,13,35,15.00
2012,05,18,13,36,15.00
2012,05,18,13,37,15.00
2012,05,18,13,38,15.00
2012,05,18,13,39,14.90
2012,05,18,13,40,14.80
2012,05,18,13,41,14.80
2012,05,18,13,42,14.80
2012,05,18,13,43,14.80
2012,05,18,13,44,14.70
2012,05,18,13,45,14.70
2012,05,18,13,46,14.70
2012,05,18,13,47,14.60
2012,05,18,13,48,14.60
2012,05,18,13,49,14.60
2012,05,18,13,50,14.50
2012,05,18,13,51,14.50
2012,05,18,13,52,14.50
2012,05,18,13,53,14.50
2012,05,18,13,54,14.50
2012,05,18,13,55,14.50
2012,05,18,13,56,14.50
2012,05,18,13,57,14.50
2012,05,18,13,58,14.40
2012,05,18,13,59,14.50
2012,05,18,14,00,14.60
2012,05,18,14,01,14.60
2012,05,18,14,02,14.70
2012,05,18,14,03,14.70
2012,05,18,14,04,14.70
2012,05,18,14,05,14.70
2012,05,18,14,06,14.80
2012,05,18,14,07,14.80
2012,05,18,14,08,14.80
2012,05,18,14,09,14.80
2012,05,18,14,10,14.80
2012,05,18,14,11,14.80
2012,05,18,14,12,14.70
2012,05,18,14,13,14.70
2012,05,18,14,14,14.60
2012,05,18,14,15,14.60
2012,05,18,14,16,14.40
2012,05,18,14,17,14.40
2012,05,18,14,18,14.40
2012,05,18,14,19,14.40
2012,05,18,14,20,14.40
2012,05,18,14,21,14.40
2012,05,18,14,22,14.40
2012,05,18,14,23,14.50
2012,05,18,14,24,14.60
2012,05,18,14,25,14.60
2012,05,18,14,26,14.70
2012,05,18,14,27,14.70
2012,05,18,14,28,14.70
2012,05,18,14,29,14.70
2012,05,18,14,30,14.70
2012,05,18,14,31,14.70
2012,05,18,14,32,14.70
2012,05,18,14,33,14.70
2012,05,18,14,34,14.70
2012,05,18,14,35,14.80
2012,05,18,14,36,14.80
2012,05,18,14,37,14.80
2012,05,18,14,38,14.90
2012,05,18,14,39,14.90
2012,05,18,14,40,14.80
2012,05,18,14,41,14.80
2012,05,18,14,42,14.80
2012,05,18,14,43,14.90
2012,05,18,14,44,15.00
2012,05,18,14,45,15.00
2012,05,18,14,46,15.00
2012,05,18,14,47,15.00
2012,05,18,14,48,15.00
2012,05,18,14,49,15.00
2012,05,18,14,50,15.10
2012,05,18,14,51,15.20
2012,05,18,14,52,15.20
2012,05,18,14,53,15.20
2012,05,18,14,54,15.20
2012,05,18,14,55,15.20
2012,05,18,14,56,15.10
2012,05,18,14,57,15.00
2012,05,18,14,58,15.00
2012,05,18,14,59,15.00
2012,05,18,15,00,15.00
2012,05,18,15,01,15.00
2012,05,18,15,02,15.00
2012,05,18,15,03,15.00
2012,05,18,15,04,15.00
2012,05,18,15,05,15.00
2012,05,18,15,06,15.00
2012,05,18,15,07,15.00
2012,05,18,15,08,15.00
2012,05,18,15,09,15.00
2012,05,18,15,10,15.00
2012,05,18,15,11,15.00
2012,05,18,15,12,15.00
2012,05,18,15,13,15.00
2012,05,18,15,14,15.00
2012,05,18,15,15,15.00
2012,05,18,15,16,15.00
2012,05,18,15,17,15.00
2012,05,18,15,18,14.90
2012,05,18,15,19,14.80
2012,05,18,15,20,14.80
2012,05,18,15,21,14.80
2012,05,18,15,22,14.80
2012,05,18,15,23,14.80
2012,05,18,15,24,14.80
2012,05,18,15,25,15.00
2012,05,18,15,26,15.00
2012,05,18,15,27,15.00
2012,05,18,15,28,15.00
2012,05,18,15,29,15.00
2012,05,18,15,30,15.00
2012,05,18,15,31,15.00
2012,05,18,15,32,15.00
2012,05,18,15,33,15.00
2012,05,18,15,34,15.00
2012,05,18,15,35,15.00
2012,05,18,15,36,15.00
2012,05,18,15,37,15.00
2012,05,18,15,38,15.00
2012,05,18,15,39,15.00
2012,05,18,15,40,15.00
2012,05,18,15,41,14.90
2012,05,18,15,42,14.80
2012,05,18,15,43,14.70
2012,05,18,15,44,14.70
2012,05,18,15,45,14.70
2012,05,18,15,46,14.70
2012,05,18,15,47,14.70
2012,05,18,15,48,14.70
2012,05,18,15,49,14.70
2012,05,18,15,50,14.70
2012,05,18,15,51,14.70
2012,05,18,15,52,14.60
2012,05,18,15,53,14.60
2012,05,18,15,54,14.50
2012,05,18,15,55,14.50
2012,05,18,15,56,14.50
2012,05,18,15,57,14.40
2012,05,18,15,58,14.40
2012,05,18,15,59,14.40
2012,05,18,16,00,14.40
2012,05,18,16,01,14.40
2012,05,18,16,02,14.30
2012,05,18,16,03,14.30
2012,05,18,16,04,14.20
2012,05,18,16,05,14.20
2012,05,18,16,06,14.30
2012,05,18,16,07,14.20
2012,05,18,16,08,14.20
2012,05,18,16,09,14.10
2012,05,18,16,10,14.10
2012,05,18,16,11,14.10
2012,05,18,16,12,14.00
2012,05,18,16,13,13.90
2012,05,18,16,14,13.90
2012,05,18,16,15,13.90
2012,05,18,16,16,13.90
2012,05,18,16,17,13.90
2012,05,18,16,18,13.90
2012,05,18,16,19,13.90
2012,05,18,16,20,13.80
2012,05,18,16,21,13.80
2012,05,18,16,22,13.80
2012,05,18,16,23,13.80
2012,05,18,16,24,13.80
2012,05,18,16,25,13.80
2012,05,18,16,26,13.80
2012,05,18,16,27,13.80
2012,05,18,16,28,13.80
2012,05,18,16,29,13.80
2012,05,18,16,30,13.80
2012,05,18,16,31,13.80
2012,05,18,16,32,13.80
2012,05,18,16,33,13.80
2012,05,18,16,34,13.80
2012,05,18,16,35,13.80
2012,05,18,16,36,13.80
2012,05,18,16,37,13.80
2012,05,18,16,38,13.80
2012,05,18,16,39,13.80
2012,05,18,16,40,13.80
2012,05,18,16,41,13.80
2012,05,18,16,42,13.80
2012,05,18,16,43,13.90
2012,05,18,16,44,13.90
2012,05,18,16,45,13.90
2012,05,18,16,46,13.90
2012,05,18,16,47,13.90
2012,05,18,16,48,13.80
2012,05,18,16,49,13.80
2012,05,18,16,50,13.80
2012,05,18,16,51,13.90
2012,05,18,16,52,13.90
2012,05,18,16,53,14.00
2012,05,18,16,54,14.10
2012,05,18,16,55,14.10
2012,05,18,16,56,14.10
2012,05,18,16,57,14.10
2012,05,18,16,58,14.10
2012,05,18,16,59,14.00
2012,05,18,17,00,13.90
2012,05,18,17,01,13.90
2012,05,18,17,02,13.90
2012,05,18,17,03,13.90
2012,05,18,17,04,14.00
2012,05,18,17,05,14.10
2012,05,18,17,06,14.10
2012,05,18,17,07,14.20
2012,05,18,17,08,14.20
2012,05,18,17,10,14.20
2012,05,18,17,11,14.10
2012,05,18,17,13,14.10
2012,05,18,17,15,14.20
2012,05,18,17,17,14.10
2012,05,18,17,18,14.00
2012,05,18,17,19,14.00
2012,05,18,17,20,13.90
2012,05,18,17,22,13.80
2012,05,18,17,23,13.80
2012,05,18,17,24,13.80
2012,05,18,17,25,13.70
2012,05,18,17,27,13.70
2012,05,18,17,28,13.70
2012,05,18,17,30,13.60
2012,05,18,17,32,13.60
2012,05,18,17,34,13.60
2012,05,18,17,35,13.60
2012,05,18,17,36,13.70
2012,05,18,17,38,13.60
2012,05,18,17,39,13.60
2012,05,18,17,40,13.60
2012,05,18,17,42,13.60
2012,05,18,17,43,13.60
2012,05,18,17,45,13.60
2012,05,18,17,46,13.50
2012,05,18,17,47,13.50
2012,05,18,17,49,13.50
2012,05,18,17,50,13.50
2012,05,18,17,52,13.50
2012,05,18,17,54,13.50
2012,05,18,17,55,13.50
2012,05,18,17,57,13.40
2012,05,18,17,58,13.40
2012,05,18,18,00,13.30
2012,05,18,18,01,13.30
2012,05,18,18,02,13.40
2012,05,18,18,04,13.40
2012,05,18,18,05,13.40
2012,05,18,18,06,13.50
2012,05,18,18,08,13.60
2012,05,18,18,09,13.60
2012,05,18,18,11,13.50
2012,05,18,18,13,13.40
2012,05,18,18,14,13.30
2012,05,18,18,16,13.30
2012,05,18,18,17,13.30
2012,05,18,18,18,13.30
2012,05,18,18,20,13.20
2012,05,18,18,21,13.20
2012,05,18,18,23,13.20
2012,05,18,18,24,13.20
2012,05,18,18,25,13.20
2012,05,18,18,27,13.20
2012,05,18,18,28,13.20
2012,05,18,18,29,13.20
2012,05,18,18,31,13.20
2012,05,18,18,32,13.20
2012,05,18,18,34,13.20
2012,05,18,18,35,13.20
2012,05,18,18,37,13.10
2012,05,18,18,38,13.10
2012,05,18,18,39,13.10
2012,05,18,18,41,12.90
2012,05,18,18,42,12.90
2012,05,18,18,44,12.80
2012,05,18,18,45,12.80
2012,05,18,18,46,12.70
2012,05,18,18,48,12.70
2012,05,18,18,49,12.70
2012,05,18,18,51,12.70
2012,05,18,18,52,12.70
2012,05,18,18,53,12.70
2012,05,18,18,54,12.70
2012,05,18,18,56,12.70
2012,05,18,18,57,12.70
2012,05,18,18,58,12.70
2012,05,18,19,00,12.70
2012,05,18,19,02,12.70
2012,05,18,19,04,12.60
2012,05,18,19,05,12.60
2012,05,18,19,07,12.60
2012,05,18,19,08,12.60
2012,05,18,19,09,12.50
2012,05,18,19,10,12.50
2012,05,18,19,12,12.50
2012,05,18,19,13,12.40
2012,05,18,19,15,12.40
2012,05,18,19,16,12.40
2012,05,18,19,17,12.40
2012,05,18,19,19,12.50
2012,05,18,19,21,12.40
2012,05,18,19,22,12.40
2012,05,18,19,23,12.40
2012,05,18,19,24,12.40
2012,05,18,19,26,12.40
2012,05,18,19,27,12.40
2012,05,18,19,28,12.40
2012,05,18,19,30,12.40
2012,05,18,19,31,12.40
2012,05,18,19,33,12.40
2012,05,18,19,34,12.40
2012,05,18,19,35,12.30
2012,05,18,19,36,12.30
2012,05,18,19,38,12.30
2012,05,18,19,40,12.30
2012,05,18,19,42,12.20
2012,05,18,19,43,12.20
2012,05,18,19,44,12.20
2012,05,18,19,45,12.20
2012,05,18,19,47,12.20
2012,05,18,19,48,12.20
2012,05,18,19,50,12.10
2012,05,18,19,51,12.10
2012,05,18,19,52,12.10
2012,05,18,19,53,12.10
2012,05,18,19,54,12.10
2012,05,18,19,55,12.10
2012,05,18,19,56,12.10
2012,05,18,19,57,12.10
2012,05,18,19,58,12.10
2012,05,18,19,59,12.10
2012,05,18,20,00,12.10
2012,05,18,20,01,12.10